Location: El Dieciséis
(32.4721°N, 116.6080°W)
Time: 08:55:17
(UTC+00:00)

Cosmos 1943 Rocket - Pass Details

Date: 13 June 2024
Orbit: 811 x 843 km, 71.0° (Epoch: 18 July)

Event Time Altitude Azimuth Distance (km) Brightness Sun altitude
Rises 11:57:23 0° 167° (SSE) 3,369 5.1 -8.3°
Reaches altitude 10° 12:00:14 10° 154° (SSE) 2,443 4.5 -7.8°
Maximum altitude 12:04:40 24° 101° (ESE) 1,656 4.4 -7.0°
Drops below altitude 10° 12:09:07 10° 49° (NE) 2,462 6.4 -6.2°
Sets 12:11:59 0° 36° (NE) 3,402 6.9 -5.7°
